[[{"header":{"parameterUnit":"m.s-1","parameterCategory":1,"la1":30.2991,"la2":30.254,"lo1":-89.0895,"lo2":-89.0444,"dy":0.0017,"dx":0.0017,"nx":28,"ny":28,"refTime":"2023-07-22T21:00:00:Z","depth":0,"parameterNumber":2,"parameterNumberName":"U-component_of_WINDS"},"data":[0,0,0,0,0,0,0,0,0,0,0,0,0,0,0,0,0,0,0,0,0,0,0,0,0,0,0,0,0,0,0,0,0,0,0,0,0,0,0,0,0,0,0,0,0,0,0,0,0,0,0,0,0,0,0,0,0,0,1.8363,1.8364,0,1.8484,1.8486,1.8487,1.851,1.8509,1.8507,1.8507,1.8641,1.8645,1.865,0,0,0,0,0,0,0,0,0,0,0,0,0,1.8162,1.8165,1.8363,1.8365,1.8366,1.8484,1.8486,1.8487,1.851,1.8508,1.8507,1.8506,1.8639,1.8645,1.865,0,0,0,0,0,0,0,0,0,0,0,0,0,1.8263,1.8167,1.8363,1.8391,1.8395,1.8484,1.8486,1.8488,1.851,1.8508,1.8507,1.8505,1.8638,1.8644,1.8651,1.8723,0,0,1.8672,1.8675,0,0,0,0,0,0,0,0,1.8257,1.827,1.8385,1.8389,1.8394,1.848,1.8464,1.8567,1.851,1.8467,1.8507,1.8505,1.8589,1.86,1.8626,1.873,1.8735,1.8672,1.8676,1.8679,1.8681,0,0,0,0,0,0,0,1.825,1.8265,1.8411,1.8387,1.8392,1.8401,1.8414,1.8484,1.8535,1.847,1.8472,1.8486,1.8591,1.862,1.863,1.8737,1.8672,1.8678,1.8682,1.8685,1.8909,1.8911,0,0,0,0,0,0,1.8237,1.8259,1.8408,1.8415,1.832,1.8406,1.842,1.8454,1.8535,1.8545,1.8487,1.8486,1.8609,1.8622,1.8635,1.8726,1.8679,1.8686,1.869,1.8907,1.891,1.8912,0,0,0,0,0,0,1.8232,1.825,1.8403,1.8338,1.8358,1.8411,1.8449,1.8457,1.8485,1.8547,1.8557,1.8506,1.8608,1.8625,1.8701,1.8731,1.8689,1.8695,1.8905,1.8908,1.8911,1.8908,0,0,0,0,0,0,1.8226,1.8248,1.8273,1.8338,1.8361,1.8463,1.8451,1.8461,1.8496,1.8496,1.8567,1.8578,1.8608,1.8691,1.8708,1.874,1.87,1.8903,1.8906,1.891,1.8906,1.8911,1.8915,0,0,0,0,0,1.8219,1.8269,1.8274,1.8292,1.8393,1.8465,1.8479,1.851,1.8498,1.8526,1.8566,1.8576,1.8725,1.8698,1.8718,1.8752,1.8901,1.8905,1.8909,1.8904,1.891,1.8915,0,0,0,0,0,0,1.821,1.8278,1.8284,1.8356,1.8404,1.8469,1.8504,1.8515,1.857,1.8568,1.8608,1.8624,1.8698,1.8733,1.8702,1.8828,1.8813,1.8821,1.8802,1.8808,1.8812,1.8803,1.8706,0,0,0,0,0,1.8215,1.8264,1.8323,1.8382,1.8405,1.845,1.8483,1.8503,1.8555,1.8577,1.8622,1.8676,1.8735,1.8774,1.8831,1.8911,1.8929,1.8945,1.8949,1.8952,1.896,1.9007,1.9015,1.8926,1.8926,1.8925,0,0,1.8229,1.8272,1.8302,1.8381,1.842,1.8474,1.8467,1.8524,1.8565,1.8587,1.866,1.8696,1.8759,1.8837,1.8874,1.8869,1.8988,1.8958,1.896,1.8966,1.9012,1.9021,1.9028,1.8928,1.8928,1.8927,0,0,1.8281,1.8317,1.837,1.841,1.8469,1.8499,1.8512,1.8575,1.8598,1.8672,1.869,1.8742,1.8842,1.8887,1.8922,1.8993,1.9005,1.9011,1.9035,1.908,1.9087,1.9094,1.9121,1.913,1.9018,1.9018,1.9018,0,1.8291,1.8368,1.8398,1.8453,1.8489,1.8508,1.8564,1.8602,1.8678,1.8704,1.8696,1.8823,1.8867,1.8957,1.8974,1.9002,1.9021,1.9003,1.9083,1.909,1.9097,1.9123,1.9133,1.9018,1.9018,1.9018,1.9018,0,1.8379,1.8434,1.847,1.854,1.858,1.8636,1.8677,1.8714,1.8731,1.8764,1.8841,1.8894,1.8963,1.8986,1.9005,1.908,1.9075,1.9075,1.9061,1.9105,1.9131,1.9141,1.9019,1.9019,1.9019,1.9019,0,0,1.8428,1.8513,1.8526,1.8559,1.8626,1.8671,1.8729,1.8794,1.8827,1.888,1.8932,1.9017,1.9017,1.9058,1.9082,1.9122,1.9177,1.9117,1.9119,1.9127,1.9266,1.9266,1.9277,1.9185,1.9187,1.9188,1.9261,0,1.8489,1.8589,1.8618,1.8705,1.8757,1.8777,1.8828,1.8877,1.8909,1.8961,1.8999,1.9059,1.9053,1.9079,1.9119,1.9161,1.9205,1.9156,1.9237,1.9239,1.9221,1.929,1.9291,1.9357,1.9271,1.9273,1.9274,0,1.8573,1.8624,1.8715,1.8777,1.88,1.8845,1.8908,1.8956,1.9014,1.9035,1.908,1.9101,1.9167,1.9148,1.9242,1.9207,1.9243,1.9269,1.9272,1.9282,1.926,1.9303,1.9379,1.9389,1.929,1.9289,1.9288,0,1.8601,1.8694,1.876,1.8788,1.8861,1.8893,1.8925,1.8981,1.9019,1.9075,1.9101,1.9166,1.9201,1.9253,1.9292,1.9274,1.9382,1.9367,1.9405,1.9404,1.9427,1.9425,1.951,1.9448,1.9448,1.9447,1.9447,0,1.8667,1.8722,1.8774,1.8815,1.8879,1.8913,1.8977,1.9011,1.906,1.9111,1.9134,1.9182,1.9229,1.9285,1.9317,1.939,1.9406,1.9428,1.9436,1.9426,1.9424,1.945,1.9447,1.945,1.945,1.9449,1.9449,0,1.8709,1.8745,1.882,1.8883,1.89,1.8944,1.9,1.9043,1.9076,1.9141,1.9158,1.9212,1.9279,1.9322,1.9408,1.943,1.9511,1.9517,1.949,1.9494,1.9529,1.9526,1.9636,1.9653,1.9578,1.9578,1.9579,0,1.8748,1.8791,1.8858,1.8892,1.8924,1.8979,1.9018,1.9054,1.9094,1.9163,1.9199,1.9266,1.9322,1.9429,1.9478,1.9545,1.9554,1.9588,1.9564,1.9554,1.9556,1.9553,1.9559,1.9592,1.9592,1.9593,1.9593,0,1.8815,1.8831,1.8884,1.8943,1.8987,1.9037,1.9087,1.9114,1.9161,1.9205,1.9271,1.9315,1.9402,1.947,1.9541,1.9579,1.9595,1.96,1.9612,1.9604,1.9587,1.9598,1.9501,1.9597,1.9597,1.9597,1.9596,1.9596,1.8859,1.8898,1.8951,1.901,1.9051,1.9097,1.914,1.9178,1.9233,1.9305,1.9324,1.9395,1.9455,1.9551,1.9591,1.9649,1.9646,1.9663,1.9668,1.9672,1.9673,1.9576,1.9662,1.9662,1.9662,1.9662,1.9662,0,1.8928,1.8963,1.9016,1.9084,1.9131,1.9138,1.9194,1.9234,1.9294,1.9347,1.9401,1.9479,1.9546,1.96,1.9669,1.9706,1.9715,1.9723,1.9721,1.973,1.9672,1.9654,1.9715,1.9715,1.9714,1.9714,1.9714,1.9714,1.8969,1.9036,1.9059,1.9149,1.9185,1.9251,1.9283,1.9327,1.9369,1.9454,1.9508,1.9542,1.9597,1.967,1.9733,1.9748,1.9773,1.9779,1.9796,1.974,1.9734,1.9729,1.9713,1.9784,1.9784,1.985,1.9851,1.9851]},{"header":{"parameterUnit":"m.s-1","parameterCategory":1,"la1":30.2991,"la2":30.254,"lo1":-89.0895,"lo2":-89.0444,"dy":0.0017,"dx":0.0017,"nx":28,"ny":28,"refTime":"2023-07-22T21:00:00:Z","depth":0,"parameterNumber":3,"parameterNumberName":"V-component_of_WINDS"},"data":[0,0,0,0,0,0,0,0,0,0,0,0,0,0,0,0,0,0,0,0,0,0,0,0,0,0,0,0,0,0,0,0,0,0,0,0,0,0,0,0,0,0,0,0,0,0,0,0,0,0,0,0,0,0,0,0,0,0,3.6645,3.6646,0,3.6735,3.6736,3.6737,3.6793,3.6794,3.6794,3.6794,3.6878,3.688,3.6882,0,0,0,0,0,0,0,0,0,0,0,0,0,3.6514,3.6516,3.6645,3.6646,3.6648,3.6735,3.6736,3.6737,3.6793,3.6794,3.6794,3.6795,3.6878,3.688,3.6882,0,0,0,0,0,0,0,0,0,0,0,0,0,3.6584,3.6517,3.6645,3.6686,3.6691,3.6734,3.6736,3.6737,3.6793,3.6794,3.6794,3.6795,3.6877,3.688,3.6882,3.689,0,0,3.6891,3.6892,0,0,0,0,0,0,0,0,3.658,3.6588,3.6679,3.6684,3.6689,3.6754,3.672,3.6788,3.6793,3.6754,3.6795,3.6795,3.6836,3.6842,3.6857,3.6893,3.6897,3.6891,3.6893,3.6894,3.6895,0,0,0,0,0,0,0,3.6575,3.6585,3.6681,3.668,3.6686,3.6697,3.6708,3.6733,3.6791,3.6758,3.6762,3.6772,3.6838,3.6855,3.686,3.6898,3.6891,3.6894,3.6896,3.6897,3.6942,3.6941,0,0,0,0,0,0,3.6565,3.658,3.6678,3.6683,3.6635,3.6699,3.6711,3.6732,3.6791,3.68,3.6772,3.6775,3.6849,3.6856,3.6863,3.6874,3.6894,3.6897,3.6899,3.6942,3.6941,3.6941,0,0,0,0,0,0,3.6562,3.6573,3.6674,3.6633,3.6647,3.6701,3.6724,3.6734,3.675,3.6801,3.6811,3.6778,3.685,3.6859,3.6882,3.6877,3.6898,3.6901,3.6943,3.6942,3.6941,3.6896,0,0,0,0,0,0,3.6558,3.6571,3.6577,3.6633,3.6649,3.6695,3.6724,3.6735,3.6756,3.676,3.681,3.6819,3.6851,3.6878,3.6885,3.6882,3.6903,3.6943,3.6942,3.6941,3.6898,3.6893,3.689,0,0,0,0,0,3.6553,3.6559,3.6577,3.6588,3.6658,3.6694,3.6703,3.6743,3.6755,3.6759,3.6792,3.6817,3.6877,3.688,3.6889,3.6886,3.6944,3.6943,3.6942,3.69,3.6894,3.689,0,0,0,0,0,0,3.6499,3.6568,3.6588,3.6614,3.6648,3.6704,3.6711,3.6736,3.6766,3.6769,3.6814,3.6824,3.6843,3.6867,3.6869,3.6894,3.6913,3.6913,3.6878,3.6873,3.6869,3.6863,3.6905,0,0,0,0,0,3.6491,3.6518,3.6575,3.6592,3.6608,3.6656,3.6674,3.6702,3.6738,3.6752,3.6787,3.6818,3.6844,3.686,3.6887,3.6902,3.6912,3.6904,3.6899,3.6896,3.6895,3.6902,3.6898,3.6937,3.6937,3.6937,0,0,3.6473,3.6513,3.6527,3.6582,3.6612,3.6636,3.6668,3.6693,3.671,3.6755,3.678,3.6806,3.6844,3.6863,3.6872,3.6883,3.6887,3.6894,3.6891,3.6893,3.69,3.6897,3.6893,3.6936,3.6936,3.6937,0,0,3.6452,3.6487,3.6504,3.6534,3.6579,3.6611,3.6615,3.6667,3.6686,3.6712,3.6746,3.6765,3.681,3.6835,3.6854,3.6841,3.6864,3.6848,3.6826,3.6832,3.6829,3.6826,3.682,3.6817,3.6847,3.6847,3.6847,0,3.6424,3.6464,3.6509,3.6532,3.6553,3.6597,3.6612,3.6638,3.6688,3.6701,3.6713,3.6768,3.6797,3.6821,3.6818,3.6832,3.6835,3.6842,3.6826,3.6824,3.6822,3.6816,3.6814,3.6845,3.6845,3.6846,3.6846,0,3.6425,3.6452,3.646,3.651,3.6533,3.6551,3.6596,3.6612,3.6637,3.6666,3.669,3.6727,3.6761,3.6769,3.6793,3.6795,3.68,3.6818,3.6838,3.6816,3.6811,3.6809,3.6842,3.6842,3.6843,3.6844,0,0,3.6375,3.6449,3.645,3.6473,3.6525,3.6545,3.6564,3.66,3.6612,3.6645,3.666,3.6696,3.6713,3.6734,3.676,3.6766,3.675,3.6784,3.6785,3.6774,3.6752,3.6737,3.6734,3.6766,3.6766,3.6766,3.6748,0,3.6361,3.6401,3.644,3.6464,3.6488,3.6529,3.6545,3.6577,3.6604,3.6626,3.6655,3.6679,3.6701,3.6713,3.6721,3.6751,3.6746,3.6753,3.6778,3.6778,3.6766,3.6731,3.6716,3.6697,3.6747,3.6746,3.6746,0,3.6351,3.6383,3.641,3.6459,3.647,3.6484,3.6518,3.654,3.6575,3.6594,3.6617,3.6646,3.6664,3.6682,3.6707,3.671,3.6722,3.6738,3.6738,3.6741,3.676,3.6731,3.6693,3.6689,3.6744,3.6744,3.6744,0,3.6308,3.6359,3.6381,3.6399,3.6456,3.6465,3.6489,3.6525,3.6543,3.6572,3.6583,3.6613,3.6629,3.665,3.6684,3.6694,3.6704,3.6725,3.6718,3.6716,3.6717,3.6716,3.6678,3.6727,3.6727,3.6727,3.6728,0,3.6288,3.6303,3.6363,3.6376,3.6392,3.6436,3.6449,3.6476,3.6508,3.6525,3.6561,3.6576,3.6621,3.664,3.6667,3.6682,3.6689,3.6702,3.6709,3.6698,3.6696,3.6706,3.6707,3.6727,3.6727,3.6727,3.6727,0,3.6244,3.6285,3.6312,3.6364,3.6377,3.6386,3.6429,3.6442,3.6471,3.6492,3.6499,3.6543,3.6567,3.6604,3.6638,3.6656,3.6665,3.6678,3.6654,3.6658,3.6647,3.6647,3.6613,3.6609,3.6662,3.6662,3.6661,0,3.6228,3.624,3.6294,3.6309,3.6332,3.6355,3.6374,3.6416,3.6433,3.6474,3.648,3.6508,3.6532,3.6567,3.66,3.6626,3.6638,3.6624,3.6642,3.663,3.6635,3.6633,3.6633,3.6619,3.6619,3.6618,3.6618,0,3.6194,3.6214,3.6241,3.6274,3.6295,3.6323,3.6352,3.6361,3.6409,3.6426,3.6452,3.647,3.6505,3.653,3.656,3.6582,3.6606,3.6612,3.6611,3.6599,3.6584,3.659,3.6641,3.6612,3.6613,3.6613,3.6613,3.6614,3.6163,3.6174,3.6213,3.6241,3.6267,3.6293,3.6307,3.6338,3.6361,3.6394,3.6417,3.644,3.6473,3.6516,3.6536,3.6553,3.6564,3.6563,3.6563,3.6561,3.6556,3.6583,3.6558,3.6559,3.6559,3.6559,3.6559,0,3.6129,3.6156,3.6181,3.6221,3.6241,3.6265,3.6298,3.6313,3.6334,3.6363,3.6386,3.6414,3.6438,3.6473,3.6499,3.6505,3.6517,3.651,3.6509,3.6513,3.6546,3.6543,3.65,3.65,3.65,3.65,3.65,3.65,3.6114,3.6134,3.6158,3.619,3.6216,3.6241,3.6257,3.628,3.6303,3.6333,3.6354,3.6377,3.6408,3.6436,3.6458,3.6468,3.6474,3.6464,3.6476,3.6506,3.6511,3.6516,3.6514,3.6465,3.6465,3.6442,3.6441,3.6441]}]]